SCOUT A R/B

Satellite information

Favourite Embed

Satellite Type and Status

ROCKET BODYIN ORBIT

Key statistics

Satellite SCOUT A R/B at a glance.

Uptime

21758

Days in orbit

Revolutions

≈ 14.0

Per day

Orbit

SSO

Sun Synchronous Orbit

Inclination

90.2

Latest

Satellite identification and parameters

Extended collection of information and parameters for SCOUT A R/B.

Object identification

Identified? True

Debris? False

Object name: SCOUT A R/B

International designator: 1966-041B

Object number (NORAD): 2180

Object ID (CCSDS): 2180

Country: UNITED STATES OF AMERICA (US)

Current information (Y/N): Y

RCS size: MEDIUM

Orbital parameters

Period: 102.781 minutes

Inclination: 90.2266 deg

SMA: 7268.353 km

Apoapsis: 946.973 km

Periapsis: 833.463 km

RAAN: 77.96 deg

Eccentricy: 0.00780848

Argument of periapsis: 189.3476 deg

Mean anomaly: 170.6255 deg

Mean motion: 14.01034274 rev/day

Mean motion (dot): 0.00000378 rev/day2

B* drag term: 0.00023947839 1/REarth

Two-line elements (TLE)

Creation date: Dec. 12, 2025, 10:14 a.m.

Reference frame: TEME

Reference center: EARTH

Epoch: Dec. 12, 2025, 7:27 a.m. UTC

TLE line 0: 0 SCOUT A R/B

TLE line 1: 1 02180U 66041B 25346.31106713 .00000378 00000-0 23948-3 0 9997

TLE line 2: 2 02180 90.2266 77.9600 0078085 189.3476 170.6255 14.01034274 37106

Live tracking on map

Real-time ground track for satellite SCOUT A R/B.

In-orbit conjunctions

A list of the most updated potential collisions computed for object SCOUT A R/B.

Target Orbit TCA Probability of collision Miss distance Type
FENGYUN 1C DEB SSO 2025-07-09 21:47:01 0.0003884346 84.0 (m) DEBRIS
FENGYUN 1C DEB SSO 2025-04-25 07:40:46 0.001554591 78.0 (m) DEBRIS
DELTA 1 DEB SSO 2024-11-01 11:52:15 0.0001248378 560.0 (m) DEBRIS
DMSP 5D-2 F13 DEB SSO 2024-09-29 06:31:40 0.0003688193 109.0 (m) DEBRIS
FENGYUN 1C DEB SSO 2024-06-02 10:56:11 0.0002182179 167.0 (m) DEBRIS

Associated space launch

The Transit-O series of satellites that closely followed the design of Transit 5C-1 were also called “Oscars” (Oscar is the phonetic alphabet for “O”, i. e., operational). They were also called NNS (Navy Navigation Satellite) or shortened NavSat.

SCOUT A R/B was lifted into orbit during the mission ‘Scout A | Transit-O 9’, on board a Scout A space rocket.

The launch took place on May 19, 1966, 2:27 a.m. from Space Launch Complex 5.

For more information about the launch, click the button.

Launch to space Scout A | Transit-O 9
Scout A | Transit-O 9

Agency: N/A

Status: Launch Successful

Launch date: May 19, 1966, 2:27 a.m. UTC

Rocket: Scout A

Launch pad: Space Launch Complex 5

Location: Vandenberg SFB, CA, USA

...

Latest news about this satellite

There are no fresh news available about this satellite. Check back as we update our databases every day.


Newsletter sign-up

Weekly statistics, charts and insights to help you stay on top of the space industry.